Hourly Data Report for November 10, 2018

CARBERRY CS
MANITOBA
Current Station Operator: ECCC - MSC

49°54'20.900" N
99°21'26.800" W
383.50 m
5010547
71170
WZE

Download Data

Hourly Data (November 2018)
Hourly Data Report for November 10, 2018
TIME
LST
Temp Definition
°C
Dew Point Definition
°C
Rel Hum Definition
%
Precip. Amount Definition
mm

Wind Dir Definition
10's deg

Wind Spd Definition
km/h
Visibility Definition
km
Stn Press Definition
kPa
Hmdx Definition


Wind Chill Definition


Weather Definition


00:00 -15.3 -18.1 79 0.0 16 13   97.53   -23 LegendNANA
01:00 -14.8 -17.6 79 0.0 15 17   97.44   -23 LegendNANA
02:00 -14.0 -16.8 79 0.0 15 18   97.36   -22 LegendNANA
03:00 -13.7 -16.7 78 0.0 15 16   97.26   -22 LegendNANA
04:00 -13.3 -16.1 80 0.0 15 18   97.13   -22 LegendNANA
05:00 -12.3 -15.4 77 0.0 15 21   97.01   -21 LegendNANA
06:00 -12.0 -15.3 76 0.0 15 23   96.95   -21 LegendNANA
07:00 -11.8 -15.3 75 0.0 15 20   96.93   -20 LegendNANA
08:00 -11.4 -14.9 75 0.0 15 23   96.87   -20 LegendNANA
09:00 -10.7 -13.6 79 0.0 15 19   96.86   -19 LegendNANA
10:00 -9.8 -12.4 82 0.0 16 21   96.85   -18 LegendNANA
11:00 -9.0 -11.7 81 0.0 16 23   96.89   -17 LegendNANA
12:00 -8.3 -11.2 79 0.0 16 20   96.86   -16 LegendNANA
13:00 -7.8 -11.2 77 0.0 15 20   96.81   -15 LegendNANA
14:00 -7.3 -10.8 76 0.0 15 18   96.78   -14 LegendNANA
15:00 -7.4 -10.5 78 0.0 15 17   96.80   -14 LegendNANA
16:00 -7.5 -10.4 80 0.0 15 15   96.84   -14 LegendNANA
17:00 -7.8 -10.3 82 0.0 15 10   96.85   -13 LegendNANA
18:00 -7.8 -10.0 84 0.0 13 7   96.88   -11 LegendNANA
19:00 -8.0 -10.3 83 0.0 12 7   96.89   -12 LegendNANA
20:00 -8.2 -9.8 88 0.0 8 6   96.93   -11 LegendNANA
21:00 -8.5 -10.0 89 0.0 7 2   96.96   -10 LegendNANA
22:00 -9.3 -10.7 90 0.2 2 3   96.97   -11 LegendNANA
23:00 -12.6 -14.1 88 0.0 33 5   97.01   -16 LegendNANA

Notes on Data Quality.

Legend

  • E = Estimated
  • M = Missing
  • NA = Not Available*
  • [empty] = Indicates an unobserved value
Date modified: